• Processing (Info)

  • MPEC 2004-J35 : 2004 JC

    The following Minor Planet Electronic Circular may be linked-to from your own Web pages, but must not otherwise be redistributed electronically.

    A form allowing access to any MPEC is at the bottom of this page.


    Read MPEC 2004-J34 Read MPEC 2004-J36


    M.P.E.C. 2004-J35                                Issued 2004 May 10, 03:41 UT
    
         The Minor Planet Electronic Circulars contain information on unusual
             minor planets and routine data on comets.  They are published
       on behalf of Commission 20 of the International Astronomical Union by the
              Minor Planet Center, Smithsonian Astrophysical Observatory,
                              Cambridge, MA 02138, U.S.A.
    
             Supported in part by the Steven and Michele Kirsch Foundation
                 Prepared using the Tamkin Foundation Computer Network
    
                                  MPC@CFA.HARVARD.EDU
              URL http://cfa-www.harvard.edu/iau/mpc.html  ISSN 1523-6714
    
                                        2004 JC
    
    Observations:
         K04J00C* C2004 05 08.17145 12 52 17.61 +38 03 10.6          19.4   EJ035644
         K04J00C  C2004 05 08.19095 12 52 13.08 +38 04 07.1          19.9   EJ035644
         K04J00C  C2004 05 08.21061 12 52 08.44 +38 05 05.2          18.8   EJ035644
         K04J00C  C2004 05 09.13392 12 48 41.65 +38 49 52.3          19.5 R EJ035H36
         K04J00C  C2004 05 09.15969 12 48 35.43 +38 51 08.5          19.9 R EJ035H36
         K04J00C  C2004 05 09.17075 12 48 32.63 +38 51 40.7          19.4 R EJ035H36
         K04J00C  C2004 05 09.20888 12 48 23.91 +38 53 38.1          19.0 R EJ035926
         K04J00C  C2004 05 09.21028 12 48 23.54 +38 53 42.3          18.8 R EJ035926
         K04J00C  C2004 05 09.21124 12 48 23.31 +38 53 44.5          18.9 R EJ035926
         K04J00C  C2004 05 09.21544 12 48 21.66 +38 53 53.0          19.3 R EJ035649
         K04J00C  C2004 05 09.21722 12 48 21.24 +38 53 57.7          19.2 R EJ035649
         K04J00C  C2004 05 09.21899 12 48 20.79 +38 54 03.0          19.5 R EJ035649
         K04J00C  C2004 05 09.22077 12 48 20.39 +38 54 08.1          19.5 R EJ035649
         K04J00C  C2004 05 09.84182 12 45 56.35 +39 24 42.2          19.5 R EJ035620
         K04J00C  C2004 05 09.85089 12 45 54.03 +39 25 08.9          20.1 R EJ035620
    
    Observer details:
    620 Observatorio Astronomico de Mallorca.  Observers S. Sanchez, R. Stoss,
        J. Nomen.  0.30-m f/9 Schmidt-Cassegrain + CCD.
    644 Palomar Mountain/NEAT.  Observers S. Pravdo, D. MacDonald, K. Lawrence,
        M. Hicks.  1.2-m Schmidt + CCD.
    649 Powell Observatory, Louisburg.  Observers R. Fredrick, S. Granger.  0.75-m
        Newtonian + CCD.
    926 Tenagra II Observatory.  Observers P. R. Holvorcem, M. Schwartz.  0.81-m
        f/7 Ritchey-Chretien + CCD.
    H36 Sandlot Observatory, Scranton.  Observer G. Hug.  0.3-m Schmidt-Cassegrain
        + CCD.
    
    Orbital elements:
    2004 JC
    Epoch 2004 Apr. 25.0 TT = JDT 2453120.5                 MPC
    M 341.80143              (2000.0)            P               Q
    n   0.26623888     Peri.  185.93732     +0.39569232     +0.90660015
    a   2.3930681      Node   107.44503     -0.83614912     +0.42168029
    e   0.6573261      Incl.    8.84208     -0.37984502     +0.01618323
    P   3.70           H   20.6           G   0.15
    From 15 observations 2004 May 8-9.
    
    Ephemeris:
    2004 JC                  a,e,i = 2.39, 0.66, 9                   q = 0.8200
    Date    TT    R. A. (2000) Decl.     Delta      r     Elong.  Phase     V
    2004 05 05    13 02.98   +35 33.8    0.275    1.179   122.4    46.3    19.9
    2004 05 10    12 45.30   +39 32.5    0.247    1.132   113.8    54.7    19.8
    2004 05 15    12 22.16   +43 50.6    0.222    1.087   104.2    64.4    19.8
    2004 05 20    11 50.15   +48 28.8    0.198    1.043    93.4    75.6    19.8
    2004 05 25    11 02.80   +53 14.2    0.177    1.001    81.1    88.9    20.0
    2004 05 30    09 49.96   +57 06.6    0.160    0.962    66.7   104.6    20.4
    2004 06 04    08 08.94   +57 33.2    0.150    0.926    50.1   122.8    21.4
    
    Kyle E. Smalley              (C) Copyright 2004 MPC           M.P.E.C. 2004-J35
    

    Read MPEC 2004-J34 Read MPEC 2004-J36


    MPEC number:

    Enter an MPEC number in one of the following forms:

    • 1997-B01 (the full form)
    • J97B01 (the packed version of the full form)
    • B01 (the abbreviated form)